Location: Corte Bragagnani
(45.3000°N, 11.1000°E)
Time: 02:28:51
(UTC+00:00)

ATLAS 2AS CENTAUR R/B - Pass Details

Date: 09 April 2020
Orbit: 931 x 1280 km, 63.7° (Epoch: 31 May)

Event Time Altitude Azimuth Distance (km) Brightness Sun altitude
Rises 18:06:22 0° 322° (NW) 4,193 6.8 -2.9°
Reaches altitude 10° 18:09:16 10° 325° (NW) 3,189 6.0 -3.4°
Maximum altitude 18:16:54 67° 47° (NE) 1,250 3.0 -4.7°
Drops below altitude 10° 18:23:53 10° 130° (SE) 2,928 4.4 -5.9°
Enters shadow 18:25:27 - 132° (SE) 3,478 4.8 -6.1°
